sat.trackr.live / text

‹ back to catalog

KINEIS-2E

NORAD 62931 · 2025-028D

PAYLOAD ACTIVE UNKNOWN

§ Identity

Operator
Country
FR
Launch date
2025-02-08
Launch site
RLLB
Launch vehicle
Mass (kg)
RCS (m²)

External: N2YO · Heavens-Above · Gunter

§ Orbital elements

Epoch: 2026-05-25T02:57:34.064352Z

Period
97.50 min
Inclination
97.8966°
Eccentricity
0.0001162
Mean motion
14.76935524 rev/d
Perigee alt
638.2 km
Apogee alt
639.8 km
Semi-major
7,017.2 km
B*
1.7729e-4
RAAN
197.2475°
Arg perigee
113.4952°
Mean anomaly
246.6381°
Rev number
6,937

§ Raw data

KINEIS-2E1 62931U 25028D   26145.12331093  .00001197  00000+0  17729-3 0  99942 62931  97.8966 197.2475 0001162 113.4952 246.6381 14.76935524 69379

JSON: /api/v1/satellites/62931 · /tle

For live sub-satellite position, see the globe view (requires WebGL).

§ Visibility from observer

Set your observer location to see the next 7 days of passes ≥ 10°. The values pass through the URL so the page stays shareable.

No JS? Fill the form by hand. The geolocation button needs JavaScript.

§ Radio — SatNOGS DB

ModeDescriptionDownlinkUplink
FM S-band telemetry 2.266 GHz
FM Telemetry 400.644 MHz

2 transmitters · refreshed weekly from db.satnogs.org